Meteo Giornale » Osservazioni meteo Stati Uniti (USA) » Millville

ore: 04:54 - Osservazioni Meteo Millville
Lat. 39° 21' N Lon. 75° 4' W Alt. 26 metri s.l.m.

sereno

23 °C

Sereno

Temp. 24 Ore

21 °C

27 °C

Nord

0 Km/h

Dew point 22 °C

Umidità 94 %

Visibilità  14 Km

Il sole sorge alle ore 06:28

Il sole tramonta alle ore 19:31

Data e Ora Cielo e Fenomeni T °C DP °C Um. % Pres. hPa Vis. km Vento km/h
Oggi h: 04:54 sereno Sereno 23 22 94 1016 14 N 0
Oggi h: 03:54 sereno Sereno 22 21 94 1017 14 N 0
Oggi h: 02:54 sereno Sereno 22 21 94 1017 14 N 0
Oggi h: 01:54 sereno Sereno 21 21 100 1017 11 N 0
Oggi h: 00:54 sereno Sereno 22 21 94 1018 14 N 0
Ieri h: 23:54 sereno Sereno 22 22 100 1018 10 N 0
Ieri h: 22:54 sereno Sereno 22 22 100 1018 10 N 0
Ieri h: 21:54 sereno Sereno 23 21 88 1018 10 N 0
Ieri h: 20:54 sereno Sereno 23 21 88 1018 10 N 5.5
Ieri h: 19:54 sereno Sereno 24 22 88 1018 11 N 0
Ieri h: 18:54 sereno Sereno 26 22 78 1018 10 N 7.4
Ieri h: 17:54 sereno Sereno 27 21 69 1018 10 N 0
Ieri h: 16:54 sereno Sereno 27 19 61 1018 10 N 0
Ieri h: 14:54 sereno Sereno 27 19 61 1019 10 N 5.5
Ieri h: 13:54 sereno Sereno 27 19 61 1019 10 N 0
Ieri h: 12:54 sereno Sereno 27 20 65 1019 10 N 0
Ieri h: 11:54 sereno Sereno 27 19 61 1019 10 N 0
Ieri h: 10:54 sereno Sereno 25 19 69 1020 10 N 11.1
Ieri h: 09:54 sereno Sereno 24 18 69 1020 10 E/NE 9.3
Ieri h: 08:54 sereno Sereno 23 20 83 1020 10 E/NE 14.8
Ieri h: 07:54 sereno Sereno 23 21 88 1019 10 NE 7.4
Ieri h: 06:54 sereno Sereno 21 21 100 1019 10 N 0
Ieri h: 05:54 sereno Sereno 21 21 100 1019 10 N 0